TimeEDT,TemperatureF,Dew PointF,Humidity,Sea Level PressureIn,VisibilityMPH,Wind Direction,Wind SpeedMPH,Gust SpeedMPH,PrecipitationIn,Events,Conditions,WindDirDegrees,DateUTC
12:15 AM,22.8,14.0,69,29.66,10.0,ESE,4.6,-,N/A,,Clear,120,2013-03-21 04:15:00
12:35 AM,21.6,15.1,76,29.66,10.0,SSE,4.6,-,N/A,,Scattered Clouds,160,2013-03-21 04:35:00
12:55 AM,21.7,13.1,69,29.66,10.0,South,3.5,-,N/A,,Clear,170,2013-03-21 04:55:00
1:15 AM,21.2,13.6,73,29.66,10.0,SE,8.1,-,N/A,,Clear,140,2013-03-21 05:15:00
1:35 AM,21.9,12.9,68,29.66,10.0,South,10.4,-,N/A,,Clear,170,2013-03-21 05:35:00
1:55 AM,21.7,12.9,69,29.67,10.0,South,6.9,-,N/A,,Clear,180,2013-03-21 05:55:00
2:15 AM,21.2,12.6,69,29.67,10.0,South,6.9,-,N/A,,Clear,170,2013-03-21 06:15:00
2:35 AM,20.8,12.6,70,29.67,10.0,South,6.9,-,N/A,,Clear,190,2013-03-21 06:35:00
2:55 AM,21.4,12.2,68,29.66,10.0,South,6.9,-,N/A,,Clear,190,2013-03-21 06:55:00
3:15 AM,21.2,11.7,67,29.66,10.0,South,4.6,-,N/A,,Clear,170,2013-03-21 07:15:00
3:35 AM,19.6,11.1,70,29.66,10.0,SSE,6.9,-,N/A,,Clear,150,2013-03-21 07:35:00
3:55 AM,18.7,11.7,74,29.66,10.0,SE,5.8,-,N/A,,Clear,140,2013-03-21 07:55:00
4:35 AM,18.1,10.9,73,29.66,10.0,SSE,3.5,-,N/A,,Clear,150,2013-03-21 08:35:00
4:55 AM,18.7,11.3,73,29.65,10.0,SSE,8.1,-,N/A,,Clear,150,2013-03-21 08:55:00
5:15 AM,18.1,11.3,75,29.66,10.0,SSE,4.6,-,N/A,,Clear,160,2013-03-21 09:15:00
5:35 AM,16.3,10.0,76,29.66,10.0,Calm,Calm,-,N/A,,Clear,0,2013-03-21 09:35:00
5:55 AM,14.2,10.0,84,29.67,10.0,Calm,Calm,-,N/A,,Clear,0,2013-03-21 09:55:00
6:15 AM,14.9,10.8,84,29.66,10.0,SE,3.5,-,N/A,,Clear,140,2013-03-21 10:15:00
6:35 AM,15.4,10.2,80,29.67,10.0,SE,5.8,-,N/A,,Clear,130,2013-03-21 10:35:00
6:55 AM,16.5,11.1,79,29.67,10.0,SE,8.1,-,N/A,,Clear,140,2013-03-21 10:55:00
7:15 AM,16.3,10.6,78,29.67,10.0,SSE,5.8,-,N/A,,Clear,160,2013-03-21 11:15:00
7:35 AM,17.6,11.1,76,29.67,10.0,SE,6.9,-,N/A,,Clear,140,2013-03-21 11:35:00
7:55 AM,17.6,11.3,76,29.67,10.0,SE,8.1,-,N/A,,Clear,130,2013-03-21 11:55:00
8:15 AM,18.9,11.5,73,29.67,10.0,SSE,8.1,-,N/A,,Clear,150,2013-03-21 12:15:00
8:35 AM,17.2,10.9,76,29.68,10.0,SSE,5.8,-,N/A,,Scattered Clouds,150,2013-03-21 12:35:00
8:55 AM,20.5,12.4,71,29.69,10.0,SSE,6.9,-,N/A,,Scattered Clouds,160,2013-03-21 12:55:00
9:15 AM,21.9,13.1,69,29.69,10.0,SSE,6.9,-,N/A,,Scattered Clouds,150,2013-03-21 13:15:00
9:35 AM,22.8,13.8,68,29.69,10.0,SSE,9.2,-,N/A,,Scattered Clouds,160,2013-03-21 13:35:00
9:55 AM,25.2,14.4,64,29.69,10.0,SSE,8.1,-,N/A,,Mostly Cloudy,150,2013-03-21 13:55:00
10:15 AM,26.2,14.0,60,29.69,10.0,SSE,10.4,16.1,N/A,,Mostly Cloudy,160,2013-03-21 14:15:00
10:35 AM,27.5,14.0,57,29.68,10.0,South,10.4,18.4,N/A,,Overcast,190,2013-03-21 14:35:00
10:55 AM,28.8,9.3,44,29.68,10.0,WSW,9.2,-,N/A,,Mostly Cloudy,250,2013-03-21 14:55:00
11:15 AM,27.1,9.3,47,29.68,10.0,West,6.9,-,N/A,,Overcast,270,2013-03-21 15:15:00
11:35 AM,27.5,9.7,47,29.68,10.0,SW,6.9,-,N/A,,Overcast,230,2013-03-21 15:35:00
11:55 AM,28.6,10.2,46,29.67,10.0,SSW,3.5,-,N/A,,Overcast,210,2013-03-21 15:55:00
12:15 PM,28.9,9.7,45,29.66,10.0,WSW,5.8,-,N/A,,Overcast,240,2013-03-21 16:15:00
12:35 PM,28.9,9.7,45,29.65,10.0,Calm,Calm,-,N/A,,Overcast,0,2013-03-21 16:35:00
12:55 PM,30.0,10.8,45,29.64,10.0,West,6.9,-,N/A,,Scattered Clouds,280,2013-03-21 16:55:00
1:15 PM,30.2,9.7,42,29.64,10.0,NW,4.6,-,N/A,,Scattered Clouds,320,2013-03-21 17:15:00
1:35 PM,32.0,6.8,35,29.63,10.0,South,3.5,-,N/A,,Scattered Clouds,180,2013-03-21 17:35:00
1:55 PM,31.8,6.6,35,29.62,10.0,Calm,Calm,-,N/A,,Mostly Cloudy,0,2013-03-21 17:55:00
2:15 PM,32.4,7.9,36,29.62,10.0,South,10.4,-,N/A,,Mostly Cloudy,190,2013-03-21 18:15:00
2:35 PM,32.2,7.0,35,29.62,10.0,South,6.9,-,N/A,,Scattered Clouds,180,2013-03-21 18:35:00
2:55 PM,32.5,8.4,36,29.61,10.0,South,6.9,-,N/A,,Scattered Clouds,170,2013-03-21 18:55:00
3:15 PM,32.4,5.4,32,29.61,10.0,SSW,8.1,-,N/A,,Mostly Cloudy,200,2013-03-21 19:15:00
3:35 PM,32.9,4.6,30,29.60,10.0,NW,3.5,-,N/A,,Mostly Cloudy,310,2013-03-21 19:35:00
3:55 PM,33.6,5.0,30,29.59,10.0,South,3.5,-,N/A,,Mostly Cloudy,180,2013-03-21 19:55:00
4:15 PM,33.1,5.7,32,29.59,10.0,SW,5.8,-,N/A,,Overcast,220,2013-03-21 20:15:00
4:35 PM,32.5,3.9,30,29.58,10.0,Calm,Calm,-,N/A,,Overcast,0,2013-03-21 20:35:00
4:55 PM,32.9,6.4,33,29.58,10.0,North,4.6,-,N/A,,Mostly Cloudy,10,2013-03-21 20:55:00
5:15 PM,32.0,7.2,35,29.58,10.0,WNW,4.6,-,N/A,,Mostly Cloudy,290,2013-03-21 21:15:00
5:35 PM,32.5,7.5,35,29.59,10.0,West,3.5,-,N/A,,Overcast,270,2013-03-21 21:35:00
5:55 PM,32.0,6.8,35,29.59,10.0,NW,4.6,-,N/A,,Overcast,310,2013-03-21 21:55:00
6:15 PM,31.1,9.0,40,29.60,10.0,NW,3.5,-,N/A,,Mostly Cloudy,310,2013-03-21 22:15:00
6:35 PM,30.2,10.4,44,29.61,10.0,NNW,3.5,-,N/A,,Mostly Cloudy,330,2013-03-21 22:35:00
6:55 PM,29.7,10.2,44,29.61,10.0,NW,5.8,-,N/A,,Overcast,320,2013-03-21 22:55:00
7:15 PM,29.3,10.0,45,29.61,10.0,NNW,6.9,-,N/A,,Mostly Cloudy,340,2013-03-21 23:15:00
7:35 PM,28.9,10.9,47,29.62,10.0,NNW,4.6,-,N/A,,Overcast,340,2013-03-21 23:35:00
7:55 PM,29.3,9.5,44,29.62,10.0,North,5.8,-,N/A,,Overcast,350,2013-03-21 23:55:00
8:15 PM,28.9,9.5,44,29.62,10.0,North,5.8,-,N/A,,Overcast,350,2013-03-22 00:15:00
8:35 PM,28.4,9.3,45,29.62,10.0,NNW,5.8,-,N/A,,Overcast,340,2013-03-22 00:35:00
8:55 PM,27.7,9.1,46,29.62,10.0,NNW,5.8,-,N/A,,Mostly Cloudy,340,2013-03-22 00:55:00
9:15 PM,27.1,9.3,47,29.62,10.0,North,5.8,-,N/A,,Clear,360,2013-03-22 01:15:00
9:35 PM,24.8,9.3,52,29.62,10.0,West,3.5,-,N/A,,Clear,280,2013-03-22 01:35:00
9:55 PM,25.3,10.2,53,29.62,10.0,West,3.5,-,N/A,,Clear,280,2013-03-22 01:55:00
10:15 PM,23.9,11.1,58,29.62,10.0,East,3.5,-,N/A,,Clear,100,2013-03-22 02:15:00
10:35 PM,23.9,11.1,58,29.62,10.0,Calm,Calm,-,N/A,,Clear,0,2013-03-22 02:35:00
10:55 PM,21.2,10.2,63,29.62,10.0,ENE,3.5,-,N/A,,Clear,70,2013-03-22 02:55:00
11:15 PM,22.8,9.9,58,29.62,10.0,NNE,3.5,-,N/A,,Clear,20,2013-03-22 03:15:00
11:35 PM,22.5,10.6,60,29.61,10.0,Calm,Calm,-,N/A,,Clear,0,2013-03-22 03:35:00
11:55 PM,22.3,10.2,60,29.61,10.0,Calm,Calm,-,N/A,,Clear,0,2013-03-22 03:55:00